Home > Weather > Porto Alegre > Past weeks

Flag for Brazil Weather for the Past 2 Weeks in Porto Alegre, Rio Grande do Sul, Brazil

Now
82 °F

Passing clouds.


Feels Like: 91 °F
Forecast: 79 / 86 °F
Wind: 3 mph from East

Location: Porto Alegre Aero-Porto

Current Time: Feb 9, 2016 at 6:02:06 AM

Latest Report: Feb 9, 2016 at 5:00 AM


Visibility: N/A

Pressure: 29.77 "Hg

Humidity: 84%

Dew point: 77 °F

Location of Porto AlegreLocation

Historic Weather in Porto Alegre — Graph

°F

Porto Alegre Temperature Yesterday

Maximum temperature yesterday: 95 °F (at 4:00 PM)
Minimum temperature yesterday: 75 °F (at 3:00 AM)
Average temperature yesterday: 84 °F

High & Low Weather Summary for the Past Weeks

 TemperatureHumidityPressure
High100 °F (Jan 25, 3:00 PM)100% (Jan 27, 5:00 AM)30.09 "Hg (Jan 27, 5:00 AM)
Low39 °F (Jan 31, 3:00 PM)24% (Jan 25, 3:00 PM)29.62 "Hg (Jan 25, 5:00 PM)
Average77 °F77%29.92 "Hg
* Reported Jan 25 5:00 AM — Feb 9 5:00 AM, Porto Alegre, Weather by CustomWeather, © 2016

Note: Actual official high and low records may vary slightly from our data, if they occured in-between our weather recording intervals... More about our weather records

Advertising

Porto Alegre Weather History for the Previous 24 Hours

 ConditionsComfort  
Time TempWeatherWind HumidityBarometerVisibility
5:00 AM
Tue, Feb 9
82 °FPassing clouds.3 mph84%29.77 "HgN/A
4:00 AM81 °FPassing clouds.3 mph89%29.80 "HgN/A
3:00 AM82 °FPassing clouds.3 mph84%29.80 "HgN/A
2:00 AM82 °FPassing clouds.No wind84%29.83 "HgN/A
1:00 AM84 °FThundershowers. Passing clouds.2 mph79%N/AN/A
12:00 AM48 °FThundershowers. Passing clouds.5 mph100%29.86 "HgN/A
11:00 PM
Mon, Feb 8
84 °FThunderstorms. Passing clouds.8 mph79%29.83 "HgN/A
10:00 PM84 °FThundershowers. Passing clouds.9 mph79%N/AN/A
9:00 PM86 °FThundershowers. Passing clouds.10 mph75%N/AN/A
8:00 PM88 °FPassing clouds.12 mph70%29.80 "HgN/A
7:00 PM88 °FScattered clouds.15 mph70%29.80 "HgN/A
6:00 PM95 °FScattered showers. Scattered clouds.6 mph53%29.77 "HgN/A
5:00 PM95 °FScattered clouds.8 mph56%29.80 "HgN/A
4:00 PM95 °FScattered clouds.8 mph56%29.80 "HgN/A
3:00 PM93 °FScattered clouds.6 mph59%29.83 "HgN/A
2:00 PM93 °FSunny.8 mph53%29.83 "Hg10 mi
1:00 PM91 °FSunny.7 mph56%29.86 "Hg10 mi
12:00 PM90 °FSunny.12 mph59%29.89 "Hg10 mi
11:00 AM88 °FSunny.10 mph59%29.89 "Hg10 mi
10:00 AM84 °FSunny.6 mph66%29.92 "Hg10 mi
9:00 AM81 °FSunny.3 mph74%29.92 "Hg10 mi
8:00 AM77 °FSunny.2 mph83%29.89 "Hg10 mi
7:00 AM75 °FSunny.2 mph89%29.89 "Hg10 mi
6:00 AM75 °FClear.2 mph83%29.86 "Hg10 mi
Weather by CustomWeather, © 2016

See weather overviewHow to use our weather pages